StationID,Date,MaxTemp,MinTemp,Precipitation,Snowfall,SnowDepth
"USC00509765","1968-07-01",73.04,44.96,61.00,0.00,0.00
"USC00509765","1968-07-02",60.98,48.02,48.00,0.00,0.00
"USC00509765","1968-07-03",,,0.00,0.00,0.00
"USC00509765","1968-07-04",69.98,48.02,0.00,0.00,0.00
"USC00509765","1968-07-05",75.92,46.04,0.00,0.00,0.00
"USC00509765","1968-07-06",75.92,46.04,0.00,0.00,0.00
"USC00509765","1968-07-07",75.92,42.08,0.00,0.00,0.00
"USC00509765","1968-07-08",73.04,46.94,0.00,0.00,0.00
"USC00509765","1968-07-09",71.06,51.08,0.00,0.00,0.00
"USC00509765","1968-07-10",66.02,48.92,61.00,0.00,0.00
"USC00509765","1968-07-11",62.06,50.00,0.00,0.00,0.00
"USC00509765","1968-07-12",62.06,48.02,76.00,0.00,0.00
"USC00509765","1968-07-13",64.04,48.02,0.00,0.00,0.00
"USC00509765","1968-07-14",59.00,46.94,79.00,0.00,0.00
"USC00509765","1968-07-15",59.00,48.92,13.00,0.00,0.00
"USC00509765","1968-07-16",66.92,48.92,8.00,0.00,0.00
"USC00509765","1968-07-17",68.00,44.96,0.00,0.00,0.00
"USC00509765","1968-07-18",66.92,51.98,0.00,0.00,0.00
"USC00509765","1968-07-19",69.98,44.06,0.00,0.00,0.00
"USC00509765","1968-07-20",73.94,42.08,0.00,0.00,0.00
"USC00509765","1968-07-21",71.96,41.00,0.00,0.00,0.00
"USC00509765","1968-07-22",75.92,42.08,0.00,0.00,0.00
"USC00509765","1968-07-23",73.94,48.92,0.00,0.00,0.00
"USC00509765","1968-07-24",78.08,44.96,0.00,0.00,0.00
"USC00509765","1968-07-25",75.02,46.04,0.00,0.00,0.00
"USC00509765","1968-07-26",75.02,50.00,0.00,0.00,0.00
"USC00509765","1968-07-27",71.06,51.98,51.00,0.00,0.00
"USC00509765","1968-07-28",69.98,48.92,15.00,0.00,0.00
"USC00509765","1968-07-29",69.08,48.92,8.00,0.00,0.00
"USC00509765","1968-07-30",66.92,50.00,23.00,0.00,0.00
"USC00509765","1968-07-31",64.94,48.02,0.00,0.00,0.00
"USC00509765","1968-08-01",64.04,44.96,3.00,0.00,0.00
"USC00509765","1968-08-02",60.08,48.02,20.00,0.00,0.00
"USC00509765","1968-08-03",66.92,39.92,0.00,0.00,0.00
"USC00509765","1968-08-04",73.04,39.92,0.00,0.00,0.00
"USC00509765","1968-08-05",78.98,44.96,0.00,0.00,0.00
"USC00509765","1968-08-06",84.02,48.92,0.00,0.00,0.00
"USC00509765","1968-08-07",80.06,48.02,0.00,0.00,0.00
"USC00509765","1968-08-08",73.04,48.92,0.00,0.00,0.00
"USC00509765","1968-08-09",73.04,51.08,0.00,0.00,0.00
"USC00509765","1968-08-10",64.94,46.04,0.00,0.00,0.00
"USC00509765","1968-08-11",64.94,50.00,0.00,0.00,0.00
"USC00509765","1968-08-12",69.08,42.08,0.00,0.00,0.00
"USC00509765","1968-08-13",71.06,48.92,0.00,0.00,0.00
"USC00509765","1968-08-14",68.00,48.02,0.00,0.00,0.00
"USC00509765","1968-08-15",66.02,44.96,0.00,0.00,0.00
"USC00509765","1968-08-16",69.98,42.98,0.00,0.00,0.00
"USC00509765","1968-08-17",66.02,35.06,0.00,0.00,0.00
"USC00509765","1968-08-18",71.06,39.02,0.00,0.00,0.00
"USC00509765","1968-08-19",73.04,50.00,0.00,0.00,0.00
"USC00509765","1968-08-20",64.94,48.92,71.00,0.00,0.00
"USC00509765","1968-08-21",68.00,48.92,0.00,0.00,0.00
"USC00509765","1968-08-22",60.98,46.94,28.00,0.00,0.00
"USC00509765","1968-08-23",66.02,44.06,41.00,0.00,0.00
"USC00509765","1968-08-24",62.96,48.92,109.00,0.00,0.00
"USC00509765","1968-08-25",66.92,44.96,3.00,0.00,0.00
"USC00509765","1968-08-26",66.92,42.98,0.00,0.00,0.00
"USC00509765","1968-08-27",66.92,37.94,0.00,0.00,0.00
"USC00509765","1968-08-28",66.02,37.04,0.00,0.00,0.00
"USC00509765","1968-08-29",64.94,41.00,0.00,0.00,0.00
"USC00509765","1968-08-30",64.94,39.92,15.00,0.00,0.00
"USC00509765","1968-08-31",60.98,37.04,0.00,0.00,0.00
"USC00509765","1968-09-01",62.96,39.02,0.00,0.00,0.00
"USC00509765","1968-09-02",64.94,41.00,0.00,0.00,0.00
"USC00509765","1968-09-03",68.00,37.04,0.00,0.00,0.00
"USC00509765","1968-09-04",62.06,35.96,58.00,0.00,0.00
"USC00509765","1968-09-05",53.06,44.06,33.00,0.00,0.00
"USC00509765","1968-09-06",60.08,44.96,20.00,0.00,0.00
"USC00509765","1968-09-07",64.04,42.08,0.00,0.00,0.00
"USC00509765","1968-09-08",64.04,44.06,0.00,0.00,0.00
"USC00509765","1968-09-09",62.06,44.06,0.00,0.00,0.00
"USC00509765","1968-09-10",60.08,35.06,0.00,0.00,0.00
"USC00509765","1968-09-11",59.00,35.96,0.00,0.00,0.00
"USC00509765","1968-09-12",57.92,39.92,20.00,0.00,0.00
"USC00509765","1968-09-13",64.04,37.04,0.00,0.00,0.00
"USC00509765","1968-09-14",60.98,26.96,0.00,0.00,0.00
"USC00509765","1968-09-15",60.08,28.94,0.00,0.00,0.00
"USC00509765","1968-09-16",55.94,28.04,0.00,0.00,0.00
"USC00509765","1968-09-17",53.96,24.98,0.00,0.00,0.00
"USC00509765","1968-09-18",48.92,26.96,0.00,0.00,0.00
"USC00509765","1968-09-19",51.98,28.94,0.00,0.00,0.00
"USC00509765","1968-09-20",55.04,24.98,0.00,0.00,0.00
"USC00509765","1968-09-21",53.96,24.98,0.00,0.00,0.00
"USC00509765","1968-09-22",51.98,17.96,0.00,0.00,0.00
"USC00509765","1968-09-23",53.06,24.08,0.00,0.00,0.00
"USC00509765","1968-09-24",48.92,17.06,0.00,0.00,0.00
"USC00509765","1968-09-25",50.00,30.92,0.00,0.00,0.00
"USC00509765","1968-09-26",55.04,35.96,0.00,0.00,0.00
"USC00509765","1968-09-27",53.96,42.08,0.00,0.00,0.00
"USC00509765","1968-09-28",55.04,39.92,0.00,0.00,0.00
"USC00509765","1968-09-29",46.94,32.00,71.00,0.00,0.00
"USC00509765","1968-09-30",33.98,28.04,20.00,33.00,0.00
"USC00509765","1968-10-01",44.96,10.94,0.00,0.00,0.00
"USC00509765","1968-10-02",42.98,26.06,0.00,0.00,0.00
"USC00509765","1968-10-03",51.08,35.96,0.00,0.00,0.00
"USC00509765","1968-10-04",48.92,33.08,0.00,0.00,0.00
"USC00509765","1968-10-05",46.04,28.94,0.00,0.00,0.00
"USC00509765","1968-10-06",46.04,26.06,0.00,0.00,0.00
"USC00509765","1968-10-07",44.96,35.06,18.00,0.00,0.00
"USC00509765","1968-10-08",50.00,24.98,0.00,0.00,0.00
"USC00509765","1968-10-09",44.06,35.96,5.00,0.00,0.00
"USC00509765","1968-10-10",41.00,30.92,0.00,0.00,0.00
"USC00509765","1968-10-11",42.08,19.94,0.00,0.00,0.00
"USC00509765","1968-10-12",37.94,26.06,0.00,0.00,0.00
"USC00509765","1968-10-13",39.92,26.06,0.00,0.00,0.00
"USC00509765","1968-10-14",33.08,30.02,41.00,51.00,51.00
"USC00509765","1968-10-15",33.98,28.94,76.00,84.00,127.00
"USC00509765","1968-10-16",30.92,17.06,0.00,0.00,102.00
"USC00509765","1968-10-17",33.08,15.08,0.00,0.00,102.00
"USC00509765","1968-10-18",35.96,24.08,0.00,0.00,76.00
"USC00509765","1968-10-19",32.00,12.02,0.00,0.00,76.00
"USC00509765","1968-10-20",28.04,10.94,0.00,0.00,76.00
"USC00509765","1968-10-21",30.02,19.04,0.00,0.00,76.00
"USC00509765","1968-10-22",35.96,14.00,0.00,0.00,76.00
"USC00509765","1968-10-23",37.94,15.98,0.00,0.00,76.00
"USC00509765","1968-10-24",42.08,24.08,0.00,0.00,51.00
"USC00509765","1968-10-25",39.02,28.04,0.00,0.00,25.00
"USC00509765","1968-10-26",42.98,28.94,0.00,0.00,25.00
"USC00509765","1968-10-27",39.02,30.02,0.00,0.00,25.00
"USC00509765","1968-10-28",35.06,19.04,0.00,0.00,25.00
"USC00509765","1968-10-29",30.92,12.02,0.00,0.00,25.00
"USC00509765","1968-10-30",30.02,21.92,18.00,38.00,51.00
"USC00509765","1968-10-31",32.00,17.06,0.00,0.00,51.00
"USC00509765","1968-11-01",35.06,21.92,0.00,0.00,25.00
"USC00509765","1968-11-02",35.06,26.96,5.00,8.00,25.00
"USC00509765","1968-11-03",44.06,26.06,0.00,0.00,0.00
"USC00509765","1968-11-04",35.96,21.92,0.00,0.00,0.00
"USC00509765","1968-11-05",37.04,26.06,0.00,0.00,0.00
"USC00509765","1968-11-06",39.02,28.94,0.00,0.00,0.00
"USC00509765","1968-11-07",42.98,33.08,0.00,0.00,0.00
"USC00509765","1968-11-08",33.08,15.08,0.00,0.00,0.00
"USC00509765","1968-11-09",28.04,17.96,18.00,25.00,25.00
"USC00509765","1968-11-10",26.06,19.04,61.00,64.00,76.00
"USC00509765","1968-11-11",21.02,5.00,15.00,13.00,102.00
"USC00509765","1968-11-12",21.92,-0.04,0.00,0.00,102.00
"USC00509765","1968-11-13",21.92,12.02,0.00,0.00,102.00
"USC00509765","1968-11-14",19.94,-2.02,0.00,0.00,76.00
"USC00509765","1968-11-15",21.92,6.98,0.00,0.00,76.00
"USC00509765","1968-11-16",30.92,19.04,0.00,0.00,76.00
"USC00509765","1968-11-17",35.96,24.08,0.00,0.00,51.00
"USC00509765","1968-11-18",35.06,24.98,0.00,0.00,51.00
"USC00509765","1968-11-19",33.08,24.98,0.00,0.00,51.00
"USC00509765","1968-11-20",33.08,23.00,0.00,0.00,25.00
"USC00509765","1968-11-21",30.02,12.02,0.00,0.00,25.00
"USC00509765","1968-11-22",21.02,-0.94,0.00,0.00,25.00
"USC00509765","1968-11-23",24.08,12.92,0.00,0.00,25.00
"USC00509765","1968-11-24",28.94,21.02,0.00,0.00,25.00
"USC00509765","1968-11-25",32.00,21.02,0.00,0.00,25.00
"USC00509765","1968-11-26",26.06,8.06,0.00,0.00,25.00
"USC00509765","1968-11-27",21.92,5.00,0.00,0.00,0.00
"USC00509765","1968-11-28",19.04,-4.00,20.00,33.00,51.00
"USC00509765","1968-11-29",15.08,1.94,25.00,46.00,76.00
"USC00509765","1968-11-30",5.00,-11.92,0.00,0.00,76.00
"USC00509765","1968-12-01",10.94,-5.98,0.00,0.00,76.00
"USC00509765","1968-12-02",10.94,-2.92,8.00,20.00,102.00
"USC00509765","1968-12-03",-0.94,-13.00,0.00,0.00,102.00
"USC00509765","1968-12-04",8.96,-11.02,0.00,0.00,76.00
"USC00509765","1968-12-05",12.02,-7.96,0.00,0.00,51.00
"USC00509765","1968-12-06",3.92,-13.00,0.00,0.00,51.00
"USC00509765","1968-12-07",1.94,-23.08,0.00,0.00,51.00
"USC00509765","1968-12-08",5.00,-16.06,0.00,0.00,51.00
"USC00509765","1968-12-09",15.08,-9.94,0.00,0.00,25.00
"USC00509765","1968-12-10",8.96,-7.96,0.00,0.00,25.00
"USC00509765","1968-12-11",15.98,-9.04,0.00,0.00,25.00
"USC00509765","1968-12-12",21.02,8.96,0.00,0.00,0.00
"USC00509765","1968-12-13",24.98,14.00,0.00,0.00,0.00
"USC00509765","1968-12-14",24.08,3.02,0.00,0.00,0.00
"USC00509765","1968-12-15",35.06,12.92,0.00,0.00,0.00
"USC00509765","1968-12-16",35.96,6.08,66.00,97.00,102.00
"USC00509765","1968-12-17",8.96,-11.92,0.00,0.00,102.00
"USC00509765","1968-12-18",12.92,1.04,0.00,0.00,76.00
"USC00509765","1968-12-19",23.00,10.94,8.00,8.00,76.00
"USC00509765","1968-12-20",21.92,1.04,0.00,0.00,76.00
"USC00509765","1968-12-21",21.92,-0.04,0.00,0.00,76.00
"USC00509765","1968-12-22",10.94,-7.96,0.00,0.00,76.00
"USC00509765","1968-12-23",6.98,-9.04,0.00,0.00,76.00
"USC00509765","1968-12-24",12.02,-7.96,0.00,0.00,76.00
"USC00509765","1968-12-25",10.94,-4.00,0.00,0.00,76.00
"USC00509765","1968-12-26",17.06,-5.08,0.00,0.00,76.00
"USC00509765","1968-12-27",19.04,-2.02,0.00,0.00,76.00
"USC00509765","1968-12-28",10.04,-11.92,0.00,0.00,76.00
"USC00509765","1968-12-29",5.00,-14.98,0.00,0.00,76.00
"USC00509765","1968-12-30",12.92,-13.00,0.00,0.00,76.00
"USC00509765","1968-12-31",10.04,-14.08,0.00,0.00,76.00
"USC00509765","1969-01-01",6.08,-0.04,0.00,0.00,76.00
"USC00509765","1969-01-02",-0.04,-5.08,0.00,0.00,51.00
"USC00509765","1969-01-03",12.92,-11.92,0.00,0.00,51.00
"USC00509765","1969-01-04",8.06,-11.02,0.00,0.00,51.00
"USC00509765","1969-01-05",12.92,-14.98,0.00,0.00,25.00
"USC00509765","1969-01-06",10.94,-11.92,0.00,0.00,25.00
"USC00509765","1969-01-07",8.96,-5.98,0.00,0.00,25.00
"USC00509765","1969-01-08",12.92,5.00,0.00,0.00,25.00
"USC00509765","1969-01-09",14.00,-0.04,0.00,0.00,25.00
"USC00509765","1969-01-10",14.00,1.94,0.00,0.00,25.00
"USC00509765","1969-01-11",17.06,3.92,0.00,0.00,0.00
"USC00509765","1969-01-12",17.06,1.94,0.00,0.00,0.00
"USC00509765","1969-01-13",17.06,-0.04,0.00,0.00,0.00
"USC00509765","1969-01-14",10.94,-16.06,0.00,0.00,0.00
"USC00509765","1969-01-15",10.94,-16.06,0.00,0.00,0.00
"USC00509765","1969-01-16",15.08,-9.04,0.00,0.00,0.00
"USC00509765","1969-01-17",14.00,-0.94,0.00,0.00,0.00
"USC00509765","1969-01-18",12.02,-2.92,0.00,0.00,0.00
"USC00509765","1969-01-19",15.98,-9.04,0.00,0.00,0.00
"USC00509765","1969-01-20",8.96,-5.98,0.00,0.00,0.00
"USC00509765","1969-01-21",15.98,-0.94,0.00,0.00,0.00
"USC00509765","1969-01-22",19.04,3.92,23.00,64.00,51.00
"USC00509765","1969-01-23",19.04,6.08,0.00,0.00,51.00
"USC00509765","1969-01-24",12.92,-5.98,0.00,0.00,51.00
"USC00509765","1969-01-25",12.92,-9.04,0.00,0.00,51.00
"USC00509765","1969-01-26",8.96,-11.02,0.00,0.00,51.00
"USC00509765","1969-01-27",15.08,-5.98,0.00,0.00,51.00
"USC00509765","1969-01-28",17.96,-5.98,0.00,0.00,51.00
"USC00509765","1969-01-29",19.94,-2.92,0.00,0.00,25.00
"USC00509765","1969-01-30",21.02,15.08,10.00,13.00,51.00
"USC00509765","1969-01-31",19.04,5.00,5.00,13.00,51.00
"USC00509765","1969-02-01",17.96,14.00,0.00,8.00,51.00
"USC00509765","1969-02-02",15.08,-7.06,0.00,0.00,51.00
"USC00509765","1969-02-03",6.98,-9.94,0.00,0.00,51.00
"USC00509765","1969-02-04",8.96,-7.96,0.00,0.00,51.00
"USC00509765","1969-02-05",5.00,-16.06,0.00,0.00,25.00
"USC00509765","1969-02-06",21.02,1.04,0.00,0.00,0.00
"USC00509765","1969-02-07",28.04,17.96,0.00,0.00,0.00
"USC00509765","1969-02-08",21.02,-4.00,0.00,0.00,0.00
"USC00509765","1969-02-09",17.06,6.08,0.00,0.00,0.00
"USC00509765","1969-02-10",26.96,10.04,0.00,0.00,0.00
"USC00509765","1969-02-11",28.94,21.02,25.00,51.00,51.00
"USC00509765","1969-02-12",23.00,10.04,0.00,0.00,51.00
"USC00509765","1969-02-13",35.06,15.98,0.00,0.00,25.00
"USC00509765","1969-02-14",37.94,23.00,0.00,0.00,25.00
"USC00509765","1969-02-15",30.02,3.92,0.00,0.00,25.00
"USC00509765","1969-02-16",33.98,-0.94,0.00,0.00,25.00
"USC00509765","1969-02-17",30.02,15.08,0.00,0.00,0.00
"USC00509765","1969-02-18",37.04,21.02,0.00,0.00,0.00
"USC00509765","1969-02-19",35.96,21.02,0.00,0.00,0.00
"USC00509765","1969-02-20",33.98,24.08,10.00,25.00,25.00
"USC00509765","1969-02-21",37.94,19.04,41.00,51.00,76.00
"USC00509765","1969-02-22",26.96,8.06,0.00,0.00,76.00
"USC00509765","1969-02-23",21.02,8.06,0.00,0.00,51.00
"USC00509765","1969-02-24",26.06,1.04,13.00,25.00,76.00
"USC00509765","1969-02-25",37.04,24.98,15.00,8.00,76.00
"USC00509765","1969-02-26",42.98,26.96,66.00,122.00,127.00
"USC00509765","1969-02-27",42.08,30.02,0.00,0.00,102.00
"USC00509765","1969-02-28",42.08,28.04,0.00,0.00,76.00
"USC00509765","1969-03-01",39.92,15.08,0.00,0.00,76.00
"USC00509765","1969-03-02",35.06,15.08,0.00,0.00,76.00
"USC00509765","1969-03-03",33.98,23.00,0.00,0.00,51.00
"USC00509765","1969-03-04",37.94,23.00,0.00,0.00,51.00
"USC00509765","1969-03-05",39.02,14.00,0.00,0.00,51.00
"USC00509765","1969-03-06",39.02,26.96,0.00,0.00,51.00
"USC00509765","1969-03-07",42.98,30.02,0.00,0.00,51.00
"USC00509765","1969-03-08",39.92,23.00,0.00,0.00,25.00
"USC00509765","1969-03-09",42.98,30.92,0.00,0.00,25.00
"USC00509765","1969-03-10",44.06,28.04,0.00,0.00,0.00
"USC00509765","1969-03-11",42.08,28.94,46.00,84.00,76.00
"USC00509765","1969-03-12",39.92,19.94,0.00,0.00,51.00
"USC00509765","1969-03-13",37.04,15.08,0.00,0.00,51.00
"USC00509765","1969-03-14",33.08,12.92,0.00,0.00,51.00
"USC00509765","1969-03-15",28.04,-0.04,0.00,0.00,25.00
"USC00509765","1969-03-16",28.04,6.08,0.00,0.00,25.00
"USC00509765","1969-03-17",28.94,5.00,0.00,0.00,25.00
"USC00509765","1969-03-18",32.00,10.04,0.00,0.00,25.00
"USC00509765","1969-03-19",35.96,15.98,0.00,0.00,0.00
"USC00509765","1969-03-20",46.04,17.96,0.00,0.00,0.00
"USC00509765","1969-03-21",35.96,30.92,41.00,76.00,51.00
"USC00509765","1969-03-22",37.94,24.98,0.00,0.00,51.00
"USC00509765","1969-03-23",42.08,23.00,0.00,0.00,51.00
"USC00509765","1969-03-24",39.02,24.08,15.00,51.00,76.00
"USC00509765","1969-03-25",35.06,15.98,0.00,0.00,76.00
"USC00509765","1969-03-26",35.96,15.08,0.00,0.00,51.00
"USC00509765","1969-03-27",42.08,12.92,0.00,0.00,51.00
"USC00509765","1969-03-28",46.04,28.94,0.00,0.00,25.00
"USC00509765","1969-03-29",44.96,28.04,0.00,0.00,0.00
"USC00509765","1969-03-30",42.08,30.02,0.00,0.00,0.00
"USC00509765","1969-03-31",46.04,23.00,0.00,0.00,0.00
"USC00509765","1969-04-01",46.04,23.00,0.00,0.00,0.00
"USC00509765","1969-04-02",48.02,21.92,0.00,0.00,0.00
"USC00509765","1969-04-03",44.96,21.02,0.00,0.00,0.00
"USC00509765","1969-04-04",39.92,28.04,0.00,0.00,0.00
"USC00509765","1969-04-05",41.00,24.08,0.00,0.00,0.00
"USC00509765","1969-04-06",42.98,32.00,0.00,0.00,0.00
"USC00509765","1969-04-07",46.94,33.08,0.00,0.00,0.00
"USC00509765","1969-04-08",44.96,35.06,0.00,0.00,0.00
"USC00509765","1969-04-09",53.96,30.02,0.00,0.00,0.00
"USC00509765","1969-04-10",53.96,33.08,0.00,0.00,0.00
"USC00509765","1969-04-11",51.98,32.00,0.00,0.00,0.00
"USC00509765","1969-04-12",51.98,30.02,0.00,0.00,0.00
"USC00509765","1969-04-13",48.02,28.04,0.00,0.00,0.00
"USC00509765","1969-04-14",50.00,28.94,0.00,0.00,0.00
"USC00509765","1969-04-15",53.06,26.96,0.00,0.00,0.00
"USC00509765","1969-04-16",57.02,32.00,0.00,0.00,0.00
"USC00509765","1969-04-17",57.02,35.96,0.00,0.00,0.00
"USC00509765","1969-04-18",57.02,26.06,0.00,0.00,0.00
"USC00509765","1969-04-19",53.96,28.94,20.00,0.00,0.00
"USC00509765","1969-04-20",53.06,28.94,18.00,0.00,0.00
"USC00509765","1969-04-21",53.06,30.92,8.00,0.00,0.00
"USC00509765","1969-04-22",51.08,21.02,0.00,0.00,0.00
"USC00509765","1969-04-23",55.04,33.98,0.00,0.00,0.00
"USC00509765","1969-04-24",55.04,33.08,0.00,0.00,0.00
"USC00509765","1969-04-25",53.06,35.96,0.00,0.00,0.00
"USC00509765","1969-04-26",57.92,23.00,0.00,0.00,0.00
"USC00509765","1969-04-27",53.06,35.96,0.00,0.00,0.00
"USC00509765","1969-04-28",51.08,26.96,0.00,0.00,0.00
"USC00509765","1969-04-29",48.02,37.94,0.00,0.00,0.00
"USC00509765","1969-04-30",46.94,32.00,0.00,0.00,0.00
"USC00509765","1969-05-01",51.08,30.02,0.00,0.00,0.00
"USC00509765","1969-05-02",55.04,32.00,0.00,0.00,0.00
"USC00509765","1969-05-03",51.08,33.98,0.00,0.00,0.00
"USC00509765","1969-05-04",53.96,33.98,0.00,0.00,0.00
"USC00509765","1969-05-05",46.04,28.94,38.00,0.00,0.00
"USC00509765","1969-05-06",53.96,28.94,0.00,0.00,0.00
"USC00509765","1969-05-07",48.92,33.08,0.00,0.00,0.00
"USC00509765","1969-05-08",48.92,33.98,36.00,0.00,0.00
"USC00509765","1969-05-09",57.92,24.08,0.00,0.00,0.00
"USC00509765","1969-05-10",60.08,44.96,0.00,0.00,0.00
"USC00509765","1969-05-11",50.00,39.02,94.00,0.00,0.00
"USC00509765","1969-05-12",50.00,37.94,5.00,0.00,0.00
"USC00509765","1969-05-13",53.96,39.02,0.00,0.00,0.00
"USC00509765","1969-05-14",60.08,28.94,0.00,0.00,0.00
"USC00509765","1969-05-15",59.00,28.04,0.00,0.00,0.00
"USC00509765","1969-05-16",57.02,37.04,0.00,0.00,0.00
"USC00509765","1969-05-17",64.94,32.00,0.00,0.00,0.00
"USC00509765","1969-05-18",66.02,30.02,0.00,0.00,0.00
"USC00509765","1969-05-19",69.08,39.02,0.00,0.00,0.00
"USC00509765","1969-05-20",60.98,39.92,0.00,0.00,0.00
"USC00509765","1969-05-21",64.94,42.08,0.00,0.00,0.00
"USC00509765","1969-05-22",57.92,46.04,0.00,0.00,0.00
"USC00509765","1969-05-23",69.98,35.06,0.00,0.00,0.00
"USC00509765","1969-05-24",80.06,41.00,0.00,0.00,0.00
"USC00509765","1969-05-25",78.08,48.02,0.00,0.00,0.00
"USC00509765","1969-05-26",66.02,37.04,0.00,0.00,0.00
"USC00509765","1969-05-27",57.02,44.96,124.00,0.00,0.00
"USC00509765","1969-05-28",59.00,42.08,0.00,0.00,0.00
"USC00509765","1969-05-29",62.96,32.00,0.00,0.00,0.00
"USC00509765","1969-05-30",57.92,39.02,0.00,0.00,0.00
"USC00509765","1969-05-31",57.92,42.98,0.00,0.00,0.00
"USC00509765","1969-06-01",60.08,39.02,53.00,0.00,0.00
"USC00509765","1969-06-02",64.94,33.98,0.00,0.00,0.00
"USC00509765","1969-06-03",66.92,39.02,0.00,0.00,0.00
"USC00509765","1969-06-04",62.06,46.94,0.00,0.00,0.00
"USC00509765","1969-06-05",59.00,46.04,0.00,0.00,0.00
"USC00509765","1969-06-06",64.04,41.00,13.00,0.00,0.00
"USC00509765","1969-06-07",66.92,41.00,0.00,0.00,0.00
"USC00509765","1969-06-08",64.04,48.02,13.00,0.00,0.00
"USC00509765","1969-06-09",60.98,44.96,99.00,0.00,0.00
"USC00509765","1969-06-10",64.94,37.94,0.00,0.00,0.00
"USC00509765","1969-06-11",64.04,50.00,0.00,0.00,0.00
"USC00509765","1969-06-12",71.06,41.00,0.00,0.00,0.00
"USC00509765","1969-06-13",73.94,35.96,0.00,0.00,0.00
"USC00509765","1969-06-14",87.08,48.92,0.00,0.00,0.00
"USC00509765","1969-06-15",87.08,53.96,0.00,0.00,0.00
"USC00509765","1969-06-16",80.96,60.08,0.00,0.00,0.00
"USC00509765","1969-06-17",64.04,51.08,0.00,0.00,0.00
"USC00509765","1969-06-18",69.08,48.92,0.00,0.00,0.00
"USC00509765","1969-06-19",66.92,37.04,0.00,0.00,0.00
"USC00509765","1969-06-20",66.02,39.92,0.00,0.00,0.00
"USC00509765","1969-06-21",69.08,37.04,0.00,0.00,0.00
"USC00509765","1969-06-22",66.92,48.92,0.00,0.00,0.00
"USC00509765","1969-06-23",66.02,48.92,0.00,0.00,0.00
"USC00509765","1969-06-24",66.92,48.02,0.00,0.00,0.00
"USC00509765","1969-06-25",66.02,51.98,0.00,0.00,0.00
"USC00509765","1969-06-26",73.04,48.02,0.00,0.00,0.00
"USC00509765","1969-06-27",78.98,50.00,0.00,0.00,0.00
"USC00509765","1969-06-28",75.02,46.04,0.00,0.00,0.00
"USC00509765","1969-06-29",71.96,42.08,0.00,0.00,0.00
"USC00509765","1969-06-30",73.94,46.94,0.00,0.00,0.00
"USC00509765","1969-07-01",69.98,46.04,13.00,0.00,0.00
"USC00509765","1969-07-02",78.08,41.00,0.00,0.00,0.00
"USC00509765","1969-07-03",75.02,48.92,0.00,0.00,0.00
"USC00509765","1969-07-04",69.08,53.06,0.00,0.00,0.00
"USC00509765","1969-07-05",73.04,51.98,0.00,0.00,0.00
"USC00509765","1969-07-06",73.94,51.98,0.00,0.00,0.00
"USC00509765","1969-07-07",69.08,44.96,20.00,0.00,0.00
"USC00509765","1969-07-08",64.94,48.92,41.00,0.00,0.00
"USC00509765","1969-07-09",66.02,50.00,10.00,0.00,0.00
"USC00509765","1969-07-10",68.00,50.00,0.00,0.00,0.00
"USC00509765","1969-07-11",68.00,51.08,0.00,0.00,0.00
"USC00509765","1969-07-12",64.04,50.00,193.00,0.00,0.00
"USC00509765","1969-07-13",62.96,51.98,0.00,0.00,0.00
"USC00509765","1969-07-14",62.96,53.06,15.00,0.00,0.00
"USC00509765","1969-07-15",60.98,48.92,20.00,0.00,0.00
"USC00509765","1969-07-16",66.02,42.98,0.00,0.00,0.00
"USC00509765","1969-07-17",66.92,41.00,0.00,0.00,0.00
"USC00509765","1969-07-18",64.94,48.92,0.00,0.00,0.00
"USC00509765","1969-07-19",64.94,44.96,0.00,0.00,0.00
"USC00509765","1969-07-20",69.08,48.02,0.00,0.00,0.00
"USC00509765","1969-07-21",68.00,44.06,0.00,0.00,0.00
"USC00509765","1969-07-22",73.04,42.08,0.00,0.00,0.00
"USC00509765","1969-07-23",71.06,48.92,0.00,0.00,0.00
"USC00509765","1969-07-24",66.92,48.02,132.00,0.00,0.00
"USC00509765","1969-07-25",64.94,46.94,338.00,0.00,0.00
"USC00509765","1969-07-26",66.92,32.00,0.00,0.00,0.00
"USC00509765","1969-07-27",64.94,37.94,0.00,0.00,0.00
"USC00509765","1969-07-28",62.06,46.94,104.00,0.00,0.00
"USC00509765","1969-07-29",60.08,44.96,64.00,0.00,0.00
"USC00509765","1969-07-30",62.06,46.94,53.00,0.00,0.00
"USC00509765","1969-07-31",69.08,42.08,0.00,0.00,0.00
"USC00509765","1969-08-01",69.08,42.98,0.00,0.00,0.00
"USC00509765","1969-08-02",69.98,48.02,0.00,0.00,0.00
"USC00509765","1969-08-03",69.98,51.08,0.00,0.00,0.00
"USC00509765","1969-08-04",73.94,51.98,0.00,0.00,0.00
"USC00509765","1969-08-05",71.06,53.96,41.00,0.00,0.00
"USC00509765","1969-08-06",69.08,48.92,38.00,0.00,0.00
"USC00509765","1969-08-07",60.08,39.02,0.00,0.00,0.00
"USC00509765","1969-08-08",62.06,33.08,0.00,0.00,0.00
"USC00509765","1969-08-09",57.92,35.96,0.00,0.00,0.00
"USC00509765","1969-08-10",60.98,39.02,0.00,0.00,0.00
"USC00509765","1969-08-11",60.98,39.92,0.00,0.00,0.00
"USC00509765","1969-08-12",57.92,33.98,0.00,0.00,0.00
"USC00509765","1969-08-13",55.04,33.08,0.00,0.00,0.00
"USC00509765","1969-08-14",60.98,28.04,0.00,0.00,0.00
"USC00509765","1969-08-15",60.98,30.02,0.00,0.00,0.00
"USC00509765","1969-08-16",62.96,44.06,0.00,0.00,0.00
"USC00509765","1969-08-17",62.06,33.98,0.00,0.00,0.00
"USC00509765","1969-08-18",64.94,41.00,0.00,0.00,0.00
"USC00509765","1969-08-19",66.92,30.92,0.00,0.00,0.00
"USC00509765","1969-08-20",62.96,33.08,0.00,0.00,0.00
"USC00509765","1969-08-21",60.98,35.96,0.00,0.00,0.00
"USC00509765","1969-08-22",57.02,39.02,30.00,0.00,0.00
"USC00509765","1969-08-23",55.94,39.92,18.00,0.00,0.00
"USC00509765","1969-08-24",68.00,35.06,0.00,0.00,0.00
"USC00509765","1969-08-25",66.92,35.96,0.00,0.00,0.00
"USC00509765","1969-08-26",66.02,33.08,0.00,0.00,0.00
"USC00509765","1969-08-27",68.00,35.96,0.00,0.00,0.00
"USC00509765","1969-08-28",64.04,46.04,0.00,0.00,0.00
"USC00509765","1969-08-29",57.02,46.94,5.00,0.00,0.00
"USC00509765","1969-08-30",60.08,44.06,13.00,0.00,0.00
"USC00509765","1969-08-31",59.00,44.96,28.00,0.00,0.00
"USC00509765","1969-09-01",60.98,44.06,61.00,0.00,0.00
"USC00509765","1969-09-02",62.96,35.96,0.00,0.00,0.00
"USC00509765","1969-09-03",53.96,42.98,56.00,0.00,0.00
"USC00509765","1969-09-04",53.96,41.00,0.00,0.00,0.00